Weather History for Guadalupe Pass, TX

Change the Weather History Date:

Tuesday, May 8, 2012

  Actual Average Record
Temperature  
Mean Temperature 52 °F -  
Max Temperature 57 °F 77 °F 91 °F (2004)
Min Temperature 50 °F 53 °F 48 °F (2007)
Degree Days  
Heating Degree Days 12    
Growing Degree Days 2 (Base 50)    
Moisture  
Dew Point 50 °F    
Average Humidity 92    
Maximum Humidity 100    
Minimum Humidity 77    
Precipitation  
Precipitation 0.07 in - - ()
Sea Level Pressure  
Sea Level Pressure 30.06 in    
Wind  
Wind Speed 36 mph (NE)    
Max Wind Speed 43 mph    
Max Gust Speed 48 mph    
Visibility 4 miles    
Events Fog , Rain    
Averages and records for this station are not official NWS values.
T = Trace of Precipitation, MM = Missing Value Source: NWS Daily Summary

Daily Weather History Graph

Daily Weather History Graph

Search for Another Location

Airport:

Trip Planner

Search our weather history database for the weather conditions in past years. The results will help you decide how hot, cold, wet, or windy it might be!

Date:

Astronomy

May. 08, 2012 Rise Set
Actual Time 6:06 AM MDT 7:44 PM MDT
Civil Twilight 5:40 AM MDT 8:11 PM MDT
Nautical Twilight 5:08 AM MDT 8:43 PM MDT
Astronomical Twilight 4:35 AM MDT 9:16 PM MDT
Moon 10:53 PM MDT (5/8) 8:23 AM MDT (5/8)
Length of Visible Light 14h 30m
Length of Day
13h 37m
Waning Gibbous, 90% of the Moon is Illuminated
May 8
Waning Gibbous
May 12
Last Quarter
May 20
New
May 28
First Quarter
Jun 4
Full

Hourly Weather History & Observations

Time (MDT) Temp. Dew Point Humidity Pressure Visibility Wind Dir Wind Speed Gust Speed Precip Events Conditions
12:03 AM 55.0 °F 48.0 °F 77% 30.08 in 10.0 mi ENE 35.7 mph - N/A   Overcast
12:51 AM 54.0 °F 48.9 °F 83% 29.89 in 9.0 mi NE 36.8 mph 41.4 mph N/A   Overcast
1:02 AM 54.0 °F 50.0 °F 86% 30.10 in 8.0 mi NE 36.8 mph - N/A   Overcast
1:51 AM 53.1 °F 50.0 °F 89% 29.90 in 7.0 mi ENE 39.1 mph - N/A   Overcast
2:38 AM 52.0 °F 51.1 °F 97% 30.09 in 6.0 mi NE 35.7 mph - 0.00 in Rain Light Rain
2:51 AM 52.0 °F 51.1 °F 97% 29.91 in 5.0 mi NE 32.2 mph - 0.00 in Rain Light Rain
2:59 AM 52.0 °F 50.0 °F 93% 30.07 in 6.0 mi NE 36.8 mph - 0.00 in Rain Light Rain
3:35 AM 52.0 °F 51.1 °F 97% 30.08 in 2.5 mi NE 33.4 mph 41.4 mph 0.00 in Rain Light Rain
3:45 AM 51.8 °F 51.8 °F 100% 30.08 in 0.8 mi NE 34.5 mph 41.4 mph 0.00 in Rain Light Rain
3:51 AM 52.0 °F 51.1 °F 97% 29.93 in 0.2 mi NE 33.4 mph 41.4 mph 0.00 in Fog , Rain Light Rain
4:51 AM 51.1 °F 51.1 °F 100% 29.94 in 0.2 mi NE 28.8 mph 36.8 mph 0.01 in Fog , Rain Light Rain
5:15 AM 51.1 °F 51.1 °F 100% 30.09 in 0.8 mi NE 38.0 mph 42.6 mph 0.00 in Rain Light Rain
5:22 AM 51.1 °F 50.0 °F 96% 30.09 in 1.2 mi NE 36.8 mph - 0.00 in Rain Light Rain
5:33 AM 51.1 °F 50.0 °F 96% 30.06 in 0.5 mi NE 40.3 mph - 0.00 in Fog , Rain Light Rain
5:51 AM 50.0 °F 50.0 °F 100% 29.92 in 0.5 mi NE 38.0 mph 48.3 mph 0.00 in Fog Fog
6:10 AM 50.0 °F 48.9 °F 96% 30.09 in 1.8 mi NE 39.1 mph - 0.00 in Rain Light Rain
6:17 AM 50.0 °F 48.9 °F 96% 30.10 in 3.0 mi NE 36.8 mph - 0.00 in Rain Light Rain
6:41 AM 50.0 °F 48.9 °F 96% 30.11 in 2.0 mi NE 32.2 mph 41.4 mph 0.00 in Rain Light Rain
6:51 AM 50.0 °F 48.9 °F 96% 29.94 in 2.0 mi NE 38.0 mph - 0.00 in Rain Light Rain
7:00 AM 50.0 °F 48.9 °F 96% 30.12 in 0.8 mi NE 32.2 mph 41.4 mph 0.00 in Rain Light Rain
7:09 AM 50.0 °F 50.0 °F 100% 30.12 in 0.2 mi NE 32.2 mph 40.3 mph 0.00 in Fog , Rain Light Rain
7:48 AM 50.0 °F 50.0 °F 100% 30.13 in 0.2 mi NE 33.4 mph 41.4 mph 0.01 in Fog , Rain Light Rain
7:51 AM 50.0 °F 50.0 °F 100% 29.97 in 0.2 mi NE 38.0 mph 41.4 mph 0.01 in Fog , Rain Light Rain
8:07 AM 50.0 °F 48.9 °F 96% 30.14 in 0.2 mi NE 32.2 mph - 0.00 in Fog , Rain Light Rain
8:51 AM 50.0 °F 50.0 °F 100% 30.03 in 0.2 mi NE 32.2 mph - 0.02 in Fog , Rain Light Rain
9:15 AM 50.0 °F 50.0 °F 100% 30.14 in 0.5 mi NE 35.7 mph 42.6 mph 0.01 in Fog , Rain Light Rain
9:29 AM 50.0 °F 48.9 °F 96% 30.13 in 2.0 mi NE 41.4 mph - 0.01 in Rain Light Rain
9:47 AM 50.0 °F 48.2 °F 94% 30.14 in 1.8 mi NE 40.3 mph - 0.01 in Rain Light Rain
9:51 AM 50.0 °F 50.0 °F 100% 30.01 in 0.8 mi NE 38.0 mph 43.7 mph 0.01 in Rain Light Rain
10:02 AM 51.1 °F 50.0 °F 96% 30.15 in 0.2 mi NE 33.4 mph 44.9 mph 0.01 in Fog , Rain Light Rain
10:51 AM 51.1 °F 51.1 °F 100% 30.02 in 0.2 mi NE 40.3 mph 47.2 mph 0.01 in Fog , Rain Light Rain
11:12 AM 51.1 °F 51.1 °F 100% 30.14 in 1.0 mi NE 42.6 mph 47.2 mph 0.00 in   Mist
11:23 AM 50.0 °F 48.9 °F 96% 30.15 in 3.0 mi ENE 36.8 mph 44.9 mph 0.00 in   Overcast
11:51 AM 51.1 °F 50.0 °F 96% 30.03 in 4.0 mi NE 39.1 mph 46.0 mph 0.00 in Rain Light Rain
12:00 PM 51.8 °F 50.0 °F 94% 30.15 in 1.8 mi NE 38.0 mph - N/A Rain Light Rain
12:15 PM 51.1 °F 51.1 °F 100% 30.14 in 1.0 mi NE 38.0 mph - 0.01 in Rain Light Rain
12:18 PM 52.0 °F 51.1 °F 97% 30.13 in 2.0 mi NE 38.0 mph - 0.01 in Rain Light Rain
12:31 PM 51.1 °F 50.0 °F 96% 30.14 in 5.0 mi NE 39.1 mph - 0.01 in   Overcast
12:51 PM 51.1 °F 48.9 °F 92% 30.02 in 9.0 mi NE 36.8 mph - 0.01 in   Overcast
1:51 PM 55.0 °F 50.0 °F 83% 29.99 in 9.0 mi ENE 33.4 mph 42.6 mph N/A   Overcast
2:17 PM 55.9 °F 51.1 °F 84% 30.10 in 1.8 mi ENE 35.7 mph 41.4 mph N/A   Haze
2:28 PM 55.0 °F 50.0 °F 83% 30.09 in 8.0 mi ENE 34.5 mph 42.6 mph N/A   Mostly Cloudy
2:51 PM 55.0 °F 50.0 °F 83% 29.96 in 8.0 mi ENE 38.0 mph - N/A   Overcast
3:24 PM 54.0 °F 48.9 °F 83% 30.08 in 8.0 mi ENE 39.1 mph 44.9 mph N/A   Overcast
3:49 PM 53.6 °F 50.0 °F 88% - 7.0 mi ENE 35.7 mph 43.7 mph N/A   Mostly Cloudy
3:51 PM 54.0 °F 50.0 °F 86% 29.96 in 7.0 mi ENE 35.7 mph 43.7 mph N/A   Mostly Cloudy
4:47 PM 53.6 °F 48.2 °F 82% 30.07 in 8.0 mi NE 39.1 mph 43.7 mph N/A   Overcast
4:51 PM 53.1 °F 48.9 °F 86% 29.96 in 7.0 mi NE 40.3 mph - N/A   Overcast
5:20 PM 53.1 °F 48.0 °F 83% 30.07 in 8.0 mi NE 38.0 mph - N/A   Overcast
5:51 PM 53.1 °F 48.9 °F 86% 29.96 in 7.0 mi NE 38.0 mph - N/A   Mostly Cloudy
6:51 PM 53.1 °F 48.0 °F 83% 29.99 in 8.0 mi ENE 29.9 mph 40.3 mph N/A   Mostly Cloudy
7:18 PM 53.1 °F 46.9 °F 80% 30.10 in 8.0 mi NE 32.2 mph 39.1 mph N/A   Mostly Cloudy
7:51 PM 53.1 °F 46.0 °F 77% 30.02 in 10.0 mi NE 31.1 mph - N/A   Mostly Cloudy
8:51 PM 53.1 °F 46.9 °F 80% 30.03 in 10.0 mi NE 28.8 mph - N/A   Scattered Clouds
9:21 PM 52.0 °F 48.0 °F 86% 30.14 in 9.0 mi NE 31.1 mph - N/A   Mostly Cloudy
9:51 PM 52.0 °F 48.0 °F 86% 30.05 in 8.0 mi NE 32.2 mph - N/A   Overcast
10:51 PM 52.0 °F 48.9 °F 89% 30.08 in 7.0 mi NE 21.9 mph - N/A   Overcast
11:28 PM 52.0 °F 48.9 °F 89% 30.18 in 7.0 mi NE 23.0 mph - 0.00 in   Mostly Cloudy
11:39 PM 52.0 °F 48.9 °F 89% 30.18 in 7.0 mi NE 21.9 mph - 0.00 in   Overcast
11:51 PM 52.0 °F 48.9 °F 89% 30.07 in 7.0 mi NE 24.2 mph - 0.00 in   Overcast